Location: Newark
(49.7485°N, 18.8323°E)
Time: 04:00:24
(UTC+00:00)

Envisat - Visible Passes

Search period start: 13 November 2019 00:00
Search period end: 23 November 2019 00:00
Orbit: 764 x 766 km, 98.1° (Epoch: 12 November)

Date Brightness Start Highest point End Pass type
(mag) Time Alt. Az. Time Alt. Az. Time Alt. Az.
13 Nov 5.6 04:43:21 10° NE 04:47:29 24° E 04:51:36 10° SE visible
13 Nov 3.2 16:01:58 10° SE 16:06:50 49° ENE 16:11:44 10° N visible
13 Nov 5.1 17:41:52 10° SSW 17:46:06 26° W 17:50:23 10° NW visible
14 Nov 6.3 04:08:19 10° ENE 04:10:14 12° E 04:12:08 10° ESE visible
14 Nov 3.8 17:04:08 10° S 17:09:05 52° W 17:14:04 10° NNW visible
15 Nov 4.7 05:08:26 10° NNE 05:13:13 39° E 05:17:57 10° SSE visible
15 Nov 2.9 16:27:11 10° SSE 16:32:15 79° ENE 16:37:22 10° NNW visible
15 Nov 5.8 18:08:45 10° SW 18:11:54 16° W 18:15:04 10° NW visible
16 Nov 5.9 04:32:23 10° NE 04:36:06 20° E 04:39:47 10° SE visible
16 Nov 3.4 15:50:54 10° SE 15:55:37 40° ENE 16:00:22 10° N visible
16 Nov 4.8 17:30:12 10° SSW 17:34:44 32° W 17:39:18 10° NNW visible
17 Nov 3.4 16:52:44 10° S 16:57:46 65° WSW 17:02:51 10° NNW visible
18 Nov 5.1 04:57:18 10° NNE 05:01:51 32° E 05:06:23 10° SSE visible
18 Nov 2.9 16:15:59 10° SSE 16:21:00 65° ENE 16:26:03 10° N visible
18 Nov 5.5 17:56:47 10° SW 18:00:30 20° W 18:04:13 10° NW visible
19 Nov 6.0 04:21:32 10° NE 04:24:41 16° E 04:27:49 10° SE visible
19 Nov 3.6 15:39:54 10° SE 15:44:26 33° ENE 15:48:58 10° N visible
19 Nov 4.4 17:18:38 10° SSW 17:23:23 39° W 17:28:10 10° NNW visible
20 Nov 4.0 05:22:31 10° NNE 05:27:31 52° E 05:32:27 10° S visible
20 Nov 3.1 16:41:24 10° S 16:46:29 80° WSW 16:51:36 10° NNW visible
20 Nov 6.1 18:24:24 10° WSW 18:26:21 12° W 18:28:17 10° WNW visible
21 Nov 5.4 04:46:13 10° NE 04:50:29 26° E 04:54:43 10° SSE visible
21 Nov 3.1 16:04:51 10° SE 16:09:46 53° ENE 16:14:43 10° N visible
21 Nov 5.2 17:44:59 10° SW 17:49:05 24° W 17:53:14 10° NW visible
22 Nov 6.2 04:10:54 10° ENE 04:13:15 13° E 04:15:35 10° ESE visible
22 Nov 3.8 15:28:58 10° ESE 15:33:15 28° ENE 15:37:32 10° N visible
22 Nov 4.0 17:07:09 10° S 17:12:03 48° W 17:16:59 10° NNW visible
